Weather Service Report


418 
ASUS45 KREV 022310
RWRNV 
NEVADA REGIONAL WEATHER ROUNDUP
NATIONAL WEATHER SERVICE RENO NV
400 PM PDT THU JUL 02 2015

NOTE: "FAIR" INDICATES FEW OR NO CLOUDS BELOW 12,000 FEET WITH NO
SIGNIFICANT WEATHER AND/OR OBSTRUCTIONS TO VISIBILITY.

NVZ001-003-004-030000-
WESTERN NEVADA
  
CITY           SKY/WX    TMP DP  RH WIND       PRES   REMARKS
RENO           PTSUNNY  101  45  15 N12       30.00F                  
CARSON CITY    CLOUDY    93  45  18 S7        30.03F                  
MINDEN         PTSUNNY   90  50  25 SW14      30.04F                  
SLIDE MTN        N/A     70  46  43 E5          N/A                   
PYRAMID LAKE     N/A     93 N/A N/A VRB3        N/A                   
FALLON         PTSUNNY   97  46  17 S9        29.98F                  
LOVELOCK       SUNNY    100  46  16 VRB3      29.95F                  
HAWTHORNE      SUNNY     97  46  17 CALM      30.00F                  
$$

NVZ002-CAZ072-073-030000-
NORTHERN AND CENTRAL SIERRA
  
CITY           SKY/WX    TMP DP  RH WIND       PRES   REMARKS
S. LAKE TAHOE  CLOUDY    79  48  33 S16G28    30.23R                  
TRUCKEE        RAIN      73  63  68 SW9G17    30.20S                  
SQUAW VLY 8000 NOT AVBL                                               
SUSANVILLE     SUNNY    100  39  12 CALM      30.00F                  
BLUE CANYON    MOSUNNY   81  50  33 SW9       30.21S                  
MAMMOTH LAKES  FAIR      81  43  26 E18       30.27F                  
BRIDGEPORT     PTSUNNY   77  52  41 VRB7      30.22S                  
$$

NVZ030-031-036-030000-
NORTHERN NEVADA
  
CITY           SKY/WX    TMP DP  RH WIND       PRES   REMARKS
ELKO           CLOUDY    89  46  22 S15G23    30.12R                  
WINNEMUCCA     MOSUNNY   99  47  17 S18G25    29.99F                  
WENDOVER       CLOUDY    97  45  16 SW15      30.01F                  
$$

NVZ035-037-030000-
CENTRAL NEVADA
  
CITY           SKY/WX    TMP DP  RH WIND       PRES   REMARKS
ELY            PTSUNNY   88  43  20 NE17      30.20F                  
EUREKA           N/A     85  48  27 S8        30.18F                  
$$

NVZ013-014-030000-
SOUTH CENTRAL NEVADA
  
CITY           SKY/WX    TMP DP  RH WIND       PRES   REMARKS
TONOPAH        PTSUNNY   88  46  23 E17       30.13F THUNDER          
$$

NVZ017-020-022-030000-
SOUTHERN NEVADA
  
CITY           SKY/WX    TMP DP  RH WIND       PRES   REMARKS
LAS VEGAS      MOSUNNY  103  55  20 SE8       29.80F                  
N. LAS VEGAS   SUNNY    101  56  22 CALM      29.84F                  
NELLIS AFB     SUNNY    103  57  21 S8        29.80F                  
HENDERSON      SUNNY    102  57  22 SW8       29.88F                  
MERCURY        MOSUNNY   94  53  25 SW13      29.95F                  
$$

Return to Home page


Western Regional Climate Center, wrcc@dri.edu